Year,Month,Day,Hour,Minute,Value (Times are PST for temperature in C)
2006,09,27,00,00,16.10
2006,09,27,00,01,16.10
2006,09,27,00,02,16.10
2006,09,27,00,03,16.10
2006,09,27,00,04,16.10
2006,09,27,00,05,16.10
2006,09,27,00,06,16.10
2006,09,27,00,07,16.10
2006,09,27,00,08,16.10
2006,09,27,00,09,16.10
2006,09,27,00,10,16.10
2006,09,27,00,11,16.10
2006,09,27,00,12,16.10
2006,09,27,00,13,16.10
2006,09,27,00,14,16.10
2006,09,27,00,15,16.10
2006,09,27,00,16,16.10
2006,09,27,00,17,16.10
2006,09,27,00,18,15.90
2006,09,27,00,19,15.90
2006,09,27,00,20,15.90
2006,09,27,00,21,15.90
2006,09,27,00,22,15.90
2006,09,27,00,23,15.80
2006,09,27,00,24,15.80
2006,09,27,00,25,15.80
2006,09,27,00,26,15.80
2006,09,27,00,27,15.80
2006,09,27,00,28,15.80
2006,09,27,00,29,15.90
2006,09,27,00,30,15.90
2006,09,27,00,31,15.90
2006,09,27,00,32,15.90
2006,09,27,00,33,16.00
2006,09,27,00,34,16.10
2006,09,27,00,35,16.10
2006,09,27,00,36,16.10
2006,09,27,00,37,16.10
2006,09,27,00,38,16.10
2006,09,27,00,39,16.10
2006,09,27,00,40,16.10
2006,09,27,00,41,16.10
2006,09,27,00,42,16.10
2006,09,27,00,43,16.20
2006,09,27,00,44,16.20
2006,09,27,00,45,16.20
2006,09,27,00,46,16.20
2006,09,27,00,47,16.30
2006,09,27,00,48,16.30
2006,09,27,00,49,16.40
2006,09,27,00,50,16.40
2006,09,27,00,51,16.40
2006,09,27,00,52,16.40
2006,09,27,00,53,16.40
2006,09,27,00,54,16.60
2006,09,27,00,55,16.60
2006,09,27,00,56,16.60
2006,09,27,00,57,16.60
2006,09,27,00,58,16.70
2006,09,27,00,59,16.70
2006,09,27,01,00,16.60
2006,09,27,01,01,16.60
2006,09,27,01,02,16.60
2006,09,27,01,03,16.60
2006,09,27,01,04,16.70
2006,09,27,01,05,16.70
2006,09,27,01,06,16.70
2006,09,27,01,07,16.60
2006,09,27,01,08,16.70
2006,09,27,01,09,16.60
2006,09,27,01,10,16.60
2006,09,27,01,11,16.60
2006,09,27,01,12,16.60
2006,09,27,01,13,16.60
2006,09,27,01,14,16.50
2006,09,27,01,15,16.40
2006,09,27,01,16,16.40
2006,09,27,01,17,16.40
2006,09,27,01,18,16.40
2006,09,27,01,19,16.40
2006,09,27,01,20,16.40
2006,09,27,01,21,16.40
2006,09,27,01,22,16.30
2006,09,27,01,23,16.30
2006,09,27,01,24,16.30
2006,09,27,01,25,16.30
2006,09,27,01,26,16.30
2006,09,27,01,27,16.30
2006,09,27,01,28,16.30
2006,09,27,01,29,16.30
2006,09,27,01,30,16.30
2006,09,27,01,31,16.30
2006,09,27,01,32,16.30
2006,09,27,01,33,16.30
2006,09,27,01,34,16.30
2006,09,27,01,35,16.30
2006,09,27,01,36,16.30
2006,09,27,01,37,16.30
2006,09,27,01,38,16.30
2006,09,27,01,39,16.20
2006,09,27,01,40,16.20
2006,09,27,01,41,16.20
2006,09,27,01,42,16.10
2006,09,27,01,43,16.10
2006,09,27,01,44,16.10
2006,09,27,01,45,16.10
2006,09,27,01,46,16.00
2006,09,27,01,47,15.90
2006,09,27,01,48,15.90
2006,09,27,01,49,15.80
2006,09,27,01,50,15.80
2006,09,27,01,51,15.80
2006,09,27,01,52,15.80
2006,09,27,01,53,15.80
2006,09,27,01,54,15.70
2006,09,27,01,55,15.70
2006,09,27,01,56,15.60
2006,09,27,01,57,15.60
2006,09,27,01,58,15.60
2006,09,27,01,59,15.50
2006,09,27,02,00,15.50
2006,09,27,02,01,15.50
2006,09,27,02,02,15.60
2006,09,27,02,03,15.60
2006,09,27,02,04,15.60
2006,09,27,02,05,15.60
2006,09,27,02,06,15.60
2006,09,27,02,07,15.60
2006,09,27,02,08,15.60
2006,09,27,02,09,15.60
2006,09,27,02,10,15.60
2006,09,27,02,11,15.60
2006,09,27,02,12,15.60
2006,09,27,02,13,15.50
2006,09,27,02,14,15.50
2006,09,27,02,15,15.50
2006,09,27,02,16,15.40
2006,09,27,02,17,15.40
2006,09,27,02,18,15.30
2006,09,27,02,19,15.30
2006,09,27,02,20,15.30
2006,09,27,02,21,15.30
2006,09,27,02,22,15.30
2006,09,27,02,23,15.30
2006,09,27,02,24,15.30
2006,09,27,02,25,15.30
2006,09,27,02,26,15.30
2006,09,27,02,27,15.30
2006,09,27,02,28,15.40
2006,09,27,02,29,15.40
2006,09,27,02,30,15.40
2006,09,27,02,31,15.40
2006,09,27,02,32,15.40
2006,09,27,02,33,15.40
2006,09,27,02,34,15.40
2006,09,27,02,35,15.40
2006,09,27,02,36,15.40
2006,09,27,02,37,15.40
2006,09,27,02,38,15.40
2006,09,27,02,39,15.40
2006,09,27,02,40,15.40
2006,09,27,02,41,15.40
2006,09,27,02,42,15.40
2006,09,27,02,43,15.40
2006,09,27,02,44,15.40
2006,09,27,02,45,15.40
2006,09,27,02,46,15.40
2006,09,27,02,47,15.40
2006,09,27,02,48,15.40
2006,09,27,02,49,15.50
2006,09,27,02,50,15.60
2006,09,27,02,51,15.60
2006,09,27,02,52,15.70
2006,09,27,02,53,15.80
2006,09,27,02,54,15.80
2006,09,27,02,55,15.80
2006,09,27,02,56,15.80
2006,09,27,02,57,15.80
2006,09,27,02,58,15.80
2006,09,27,02,59,15.70
2006,09,27,03,00,15.70
2006,09,27,03,01,15.60
2006,09,27,03,02,15.50
2006,09,27,03,03,15.30
2006,09,27,03,04,15.20
2006,09,27,03,05,15.10
2006,09,27,03,06,15.00
2006,09,27,03,07,14.80
2006,09,27,03,08,14.80
2006,09,27,03,09,14.70
2006,09,27,03,10,14.60
2006,09,27,03,11,14.60
2006,09,27,03,12,14.50
2006,09,27,03,13,14.50
2006,09,27,03,14,14.40
2006,09,27,03,15,14.30
2006,09,27,03,16,14.30
2006,09,27,03,17,14.30
2006,09,27,03,18,14.30
2006,09,27,03,19,14.30
2006,09,27,03,20,14.40
2006,09,27,03,21,14.40
2006,09,27,03,22,14.40
2006,09,27,03,23,14.40
2006,09,27,03,24,14.40
2006,09,27,03,25,14.50
2006,09,27,03,26,14.50
2006,09,27,03,27,14.50
2006,09,27,03,28,14.50
2006,09,27,03,29,14.50
2006,09,27,03,30,14.60
2006,09,27,03,31,14.60
2006,09,27,03,32,14.60
2006,09,27,03,33,14.60
2006,09,27,03,34,14.50
2006,09,27,03,35,14.50
2006,09,27,03,36,14.50
2006,09,27,03,37,14.50
2006,09,27,03,38,14.50
2006,09,27,03,39,14.40
2006,09,27,03,40,14.40
2006,09,27,03,41,14.40
2006,09,27,03,42,14.40
2006,09,27,03,43,14.40
2006,09,27,03,44,14.40
2006,09,27,03,45,14.40
2006,09,27,03,46,14.40
2006,09,27,03,47,14.30
2006,09,27,03,48,14.30
2006,09,27,03,49,14.30
2006,09,27,03,50,14.30
2006,09,27,03,51,14.30
2006,09,27,03,52,14.20
2006,09,27,03,53,14.20
2006,09,27,03,54,14.20
2006,09,27,03,55,14.20
2006,09,27,03,56,14.20
2006,09,27,03,57,14.20
2006,09,27,03,58,14.20
2006,09,27,03,59,14.20
2006,09,27,04,00,14.20
2006,09,27,04,01,14.20
2006,09,27,04,02,14.20
2006,09,27,04,03,14.10
2006,09,27,04,04,14.10
2006,09,27,04,05,14.10
2006,09,27,04,06,14.10
2006,09,27,04,07,14.10
2006,09,27,04,08,14.10
2006,09,27,04,09,14.10
2006,09,27,04,10,14.10
2006,09,27,04,11,14.10
2006,09,27,04,12,14.00
2006,09,27,04,13,14.00
2006,09,27,04,14,14.00
2006,09,27,04,15,14.00
2006,09,27,04,16,14.00
2006,09,27,04,17,14.00
2006,09,27,04,18,14.00
2006,09,27,04,19,14.00
2006,09,27,04,20,14.00
2006,09,27,04,21,14.00
2006,09,27,04,22,14.00
2006,09,27,04,23,13.90
2006,09,27,04,24,13.90
2006,09,27,04,25,13.90
2006,09,27,04,26,13.90
2006,09,27,04,27,13.90
2006,09,27,04,28,13.90
2006,09,27,04,29,13.90
2006,09,27,04,30,13.90
2006,09,27,04,31,13.90
2006,09,27,04,32,13.90
2006,09,27,04,33,14.00
2006,09,27,04,34,14.00
2006,09,27,04,35,14.00
2006,09,27,04,36,14.00
2006,09,27,04,37,14.10
2006,09,27,04,38,14.10
2006,09,27,04,39,14.10
2006,09,27,04,40,14.10
2006,09,27,04,41,14.10
2006,09,27,04,42,14.10
2006,09,27,04,43,14.20
2006,09,27,04,44,14.20
2006,09,27,04,45,14.20
2006,09,27,04,46,14.20
2006,09,27,04,47,14.20
2006,09,27,04,48,14.30
2006,09,27,04,49,14.30
2006,09,27,04,50,14.40
2006,09,27,04,51,14.40
2006,09,27,04,52,14.40
2006,09,27,04,53,14.40
2006,09,27,04,54,14.40
2006,09,27,04,55,14.40
2006,09,27,04,56,14.40
2006,09,27,04,57,14.40
2006,09,27,04,58,14.40
2006,09,27,04,59,14.30
2006,09,27,05,00,14.30
2006,09,27,05,01,14.30
2006,09,27,05,02,14.20
2006,09,27,05,03,14.20
2006,09,27,05,04,14.20
2006,09,27,05,05,14.20
2006,09,27,05,06,14.10
2006,09,27,05,07,14.10
2006,09,27,05,08,14.10
2006,09,27,05,09,14.10
2006,09,27,05,10,14.10
2006,09,27,05,11,14.10
2006,09,27,05,12,14.10
2006,09,27,05,13,14.10
2006,09,27,05,14,14.00
2006,09,27,05,15,14.00
2006,09,27,05,16,14.00
2006,09,27,05,17,14.00
2006,09,27,05,18,14.00
2006,09,27,05,19,14.00
2006,09,27,05,20,14.00
2006,09,27,05,21,13.90
2006,09,27,05,22,13.90
2006,09,27,05,23,13.90
2006,09,27,05,24,13.80
2006,09,27,05,25,13.80
2006,09,27,05,26,13.70
2006,09,27,05,27,13.70
2006,09,27,05,28,13.70
2006,09,27,05,29,13.70
2006,09,27,05,30,13.70
2006,09,27,05,31,13.70
2006,09,27,05,32,13.70
2006,09,27,05,33,13.70
2006,09,27,05,34,13.80
2006,09,27,05,35,13.80
2006,09,27,05,36,13.80
2006,09,27,05,37,13.80
2006,09,27,05,38,13.80
2006,09,27,05,39,13.80
2006,09,27,05,40,13.80
2006,09,27,05,41,13.70
2006,09,27,05,42,13.70
2006,09,27,05,43,13.70
2006,09,27,05,44,13.70
2006,09,27,05,45,13.70
2006,09,27,05,46,13.70
2006,09,27,05,47,13.70
2006,09,27,05,48,13.70
2006,09,27,05,49,13.70
2006,09,27,05,50,13.70
2006,09,27,05,51,13.70
2006,09,27,05,52,13.70
2006,09,27,05,53,13.70
2006,09,27,05,54,13.70
2006,09,27,05,55,13.70
2006,09,27,05,56,13.70
2006,09,27,05,57,13.70
2006,09,27,05,58,13.70
2006,09,27,05,59,13.70
2006,09,27,06,00,13.70
2006,09,27,06,01,13.70
2006,09,27,06,02,13.70
2006,09,27,06,03,13.70
2006,09,27,06,04,13.70
2006,09,27,06,05,13.70
2006,09,27,06,06,13.70
2006,09,27,06,07,13.70
2006,09,27,06,08,13.70
2006,09,27,06,09,13.70
2006,09,27,06,10,13.70
2006,09,27,06,11,13.70
2006,09,27,06,12,13.70
2006,09,27,06,13,13.80
2006,09,27,06,14,13.80
2006,09,27,06,15,13.80
2006,09,27,06,16,13.80
2006,09,27,06,17,13.80
2006,09,27,06,18,13.80
2006,09,27,06,19,13.80
2006,09,27,06,20,13.80
2006,09,27,06,21,13.80
2006,09,27,06,22,13.80
2006,09,27,06,23,13.80
2006,09,27,06,24,13.80
2006,09,27,06,25,13.80
2006,09,27,06,26,13.80
2006,09,27,06,27,13.80
2006,09,27,06,28,13.70
2006,09,27,06,29,13.70
2006,09,27,06,30,13.70
2006,09,27,06,31,13.70
2006,09,27,06,32,13.70
2006,09,27,06,33,13.70
2006,09,27,06,34,13.70
2006,09,27,06,35,13.70
2006,09,27,06,36,13.70
2006,09,27,06,37,13.70
2006,09,27,06,38,13.70
2006,09,27,06,39,13.70
2006,09,27,06,40,13.70
2006,09,27,06,41,13.70
2006,09,27,06,42,13.70
2006,09,27,06,43,13.70
2006,09,27,06,44,13.70
2006,09,27,06,45,13.70
2006,09,27,06,46,13.70
2006,09,27,06,47,13.70
2006,09,27,06,48,13.70
2006,09,27,06,49,13.80
2006,09,27,06,50,13.80
2006,09,27,06,51,13.80
2006,09,27,06,52,13.80
2006,09,27,06,53,13.90
2006,09,27,06,54,13.90
2006,09,27,06,55,13.90
2006,09,27,06,56,14.00
2006,09,27,06,57,14.00
2006,09,27,06,58,14.00
2006,09,27,06,59,14.10
2006,09,27,07,00,14.10
2006,09,27,07,01,14.10
2006,09,27,07,02,14.10
2006,09,27,07,03,14.10
2006,09,27,07,04,14.00
2006,09,27,07,05,14.00
2006,09,27,07,06,14.00
2006,09,27,07,07,14.00
2006,09,27,07,08,14.00
2006,09,27,07,09,14.00
2006,09,27,07,10,13.90
2006,09,27,07,11,13.90
2006,09,27,07,12,13.90
2006,09,27,07,13,13.90
2006,09,27,07,14,13.90
2006,09,27,07,15,13.90
2006,09,27,07,16,13.90
2006,09,27,07,17,13.90
2006,09,27,07,18,13.80
2006,09,27,07,19,13.80
2006,09,27,07,20,13.80
2006,09,27,07,21,13.80
2006,09,27,07,22,13.80
2006,09,27,07,23,13.80
2006,09,27,07,24,13.80
2006,09,27,07,25,13.80
2006,09,27,07,26,13.80
2006,09,27,07,27,13.90
2006,09,27,07,28,13.90
2006,09,27,07,29,13.90
2006,09,27,07,30,13.90
2006,09,27,07,31,13.90
2006,09,27,07,32,13.90
2006,09,27,07,33,13.90
2006,09,27,07,34,13.90
2006,09,27,07,35,14.00
2006,09,27,07,36,14.00
2006,09,27,07,37,13.90
2006,09,27,07,38,13.90
2006,09,27,07,39,13.90
2006,09,27,07,40,13.90
2006,09,27,07,41,13.90
2006,09,27,07,42,14.00
2006,09,27,07,43,14.00
2006,09,27,07,44,14.00
2006,09,27,07,45,14.00
2006,09,27,07,46,14.00
2006,09,27,07,47,14.00
2006,09,27,07,48,14.10
2006,09,27,07,49,14.10
2006,09,27,07,50,14.10
2006,09,27,07,51,14.20
2006,09,27,07,52,14.20
2006,09,27,07,53,14.20
2006,09,27,07,54,14.20
2006,09,27,07,55,14.20
2006,09,27,07,56,14.20
2006,09,27,07,57,14.30
2006,09,27,07,58,14.30
2006,09,27,07,59,14.30
2006,09,27,08,00,14.40
2006,09,27,08,01,14.40
2006,09,27,08,02,14.40
2006,09,27,08,03,14.40
2006,09,27,08,04,14.40
2006,09,27,08,05,14.50
2006,09,27,08,06,14.50
2006,09,27,08,07,14.50
2006,09,27,08,08,14.50
2006,09,27,08,09,14.60
2006,09,27,08,10,14.60
2006,09,27,08,11,14.60
2006,09,27,08,12,14.70
2006,09,27,08,13,14.80
2006,09,27,08,14,14.80
2006,09,27,08,15,14.80
2006,09,27,08,16,14.90
2006,09,27,08,17,14.90
2006,09,27,08,18,15.00
2006,09,27,08,19,15.00
2006,09,27,08,20,15.10
2006,09,27,08,21,15.10
2006,09,27,08,22,15.20
2006,09,27,08,23,15.20
2006,09,27,08,24,15.30
2006,09,27,08,25,15.30
2006,09,27,08,26,15.30
2006,09,27,08,27,15.40
2006,09,27,08,28,15.40
2006,09,27,08,29,15.50
2006,09,27,08,30,15.50
2006,09,27,08,31,15.60
2006,09,27,08,32,15.60
2006,09,27,08,33,15.60
2006,09,27,08,34,15.70
2006,09,27,08,35,15.70
2006,09,27,08,36,15.70
2006,09,27,08,37,15.70
2006,09,27,08,38,15.70
2006,09,27,08,39,15.80
2006,09,27,08,40,15.80
2006,09,27,08,41,15.80
2006,09,27,08,42,15.80
2006,09,27,08,43,15.80
2006,09,27,08,44,15.80
2006,09,27,08,45,15.90
2006,09,27,08,46,15.90
2006,09,27,08,47,16.00
2006,09,27,08,48,16.10
2006,09,27,08,49,16.10
2006,09,27,08,50,16.20
2006,09,27,08,51,16.20
2006,09,27,08,52,16.30
2006,09,27,08,53,16.30
2006,09,27,08,54,16.40
2006,09,27,08,55,16.40
2006,09,27,08,56,16.40
2006,09,27,08,57,16.40
2006,09,27,08,58,16.40
2006,09,27,08,59,16.50
2006,09,27,09,00,16.60
2006,09,27,09,01,16.60
2006,09,27,09,02,16.60
2006,09,27,09,03,16.70
2006,09,27,09,04,16.70
2006,09,27,09,05,16.70
2006,09,27,09,06,16.80
2006,09,27,09,07,16.90
2006,09,27,09,08,16.90
2006,09,27,09,09,17.00
2006,09,27,09,10,17.10
2006,09,27,09,11,17.20
2006,09,27,09,12,17.30
2006,09,27,09,13,17.30
2006,09,27,09,14,17.40
2006,09,27,09,15,17.50
2006,09,27,09,16,17.60
2006,09,27,09,17,17.70
2006,09,27,09,18,17.80
2006,09,27,09,19,17.90
2006,09,27,09,20,17.90
2006,09,27,09,21,18.00
2006,09,27,09,22,18.10
2006,09,27,09,23,18.20
2006,09,27,09,24,18.20
2006,09,27,09,25,18.10
2006,09,27,09,26,18.10
2006,09,27,09,27,18.10
2006,09,27,09,28,18.10
2006,09,27,09,29,18.10
2006,09,27,09,30,18.10
2006,09,27,09,31,18.10
2006,09,27,09,32,18.10
2006,09,27,09,33,18.00
2006,09,27,09,34,17.90
2006,09,27,09,35,18.00
2006,09,27,09,36,18.10
2006,09,27,09,37,18.10
2006,09,27,09,38,18.20
2006,09,27,09,39,18.20
2006,09,27,09,40,18.20
2006,09,27,09,41,18.30
2006,09,27,09,42,18.30
2006,09,27,09,43,18.30
2006,09,27,09,44,18.30
2006,09,27,09,45,18.40
2006,09,27,09,46,18.40
2006,09,27,09,47,18.50
2006,09,27,09,48,18.60
2006,09,27,09,49,18.60
2006,09,27,09,50,18.60
2006,09,27,09,51,18.70
2006,09,27,09,52,18.70
2006,09,27,09,53,18.70
2006,09,27,09,54,18.70
2006,09,27,09,55,18.70
2006,09,27,09,56,18.70
2006,09,27,09,57,18.70
2006,09,27,09,58,18.70
2006,09,27,09,59,18.70
2006,09,27,10,00,18.70
2006,09,27,10,01,18.70
2006,09,27,10,02,18.70
2006,09,27,10,03,18.70
2006,09,27,10,04,18.80
2006,09,27,10,05,18.80
2006,09,27,10,06,18.80
2006,09,27,10,07,18.80
2006,09,27,10,08,18.90
2006,09,27,10,09,18.90
2006,09,27,10,10,19.00
2006,09,27,10,11,19.10
2006,09,27,10,12,19.10
2006,09,27,10,13,19.20
2006,09,27,10,14,19.30
2006,09,27,10,15,19.40
2006,09,27,10,16,19.50
2006,09,27,10,17,19.50
2006,09,27,10,18,19.50
2006,09,27,10,19,19.50
2006,09,27,10,20,19.40
2006,09,27,10,21,19.40
2006,09,27,10,22,19.50
2006,09,27,10,23,19.40
2006,09,27,10,24,19.40
2006,09,27,10,25,19.30
2006,09,27,10,26,19.40
2006,09,27,10,27,19.40
2006,09,27,10,28,19.40
2006,09,27,10,29,19.40
2006,09,27,10,30,19.50
2006,09,27,10,31,19.50
2006,09,27,10,32,19.50
2006,09,27,10,33,19.50
2006,09,27,10,34,19.50
2006,09,27,10,35,19.60
2006,09,27,10,36,19.60
2006,09,27,10,37,19.50
2006,09,27,10,38,19.40
2006,09,27,10,39,19.40
2006,09,27,10,40,19.30
2006,09,27,10,41,19.10
2006,09,27,10,42,19.00
2006,09,27,10,43,18.90
2006,09,27,10,44,18.90
2006,09,27,10,45,18.80
2006,09,27,10,46,18.70
2006,09,27,10,47,18.70
2006,09,27,10,48,18.80
2006,09,27,10,49,18.80
2006,09,27,10,50,19.00
2006,09,27,10,51,19.10
2006,09,27,10,52,19.30
2006,09,27,10,53,19.40
2006,09,27,10,54,19.50
2006,09,27,10,55,19.60
2006,09,27,10,56,19.70
2006,09,27,10,57,19.80
2006,09,27,10,58,19.80
2006,09,27,10,59,19.90
2006,09,27,11,00,19.90
2006,09,27,11,01,20.00
2006,09,27,11,02,20.10
2006,09,27,11,03,20.10
2006,09,27,11,04,20.20
2006,09,27,11,05,20.20
2006,09,27,11,06,20.30
2006,09,27,11,07,20.40
2006,09,27,11,08,20.40
2006,09,27,11,09,20.40
2006,09,27,11,10,20.40
2006,09,27,11,11,20.40
2006,09,27,11,12,20.40
2006,09,27,11,13,20.40
2006,09,27,11,14,20.40
2006,09,27,11,15,20.50
2006,09,27,11,16,20.60
2006,09,27,11,17,20.60
2006,09,27,11,18,20.70
2006,09,27,11,19,20.70
2006,09,27,11,20,20.70
2006,09,27,11,21,20.80
2006,09,27,11,22,20.80
2006,09,27,11,23,20.80
2006,09,27,11,24,20.80
2006,09,27,11,25,20.80
2006,09,27,11,26,20.80
2006,09,27,11,27,20.80
2006,09,27,11,28,20.80
2006,09,27,11,29,20.80
2006,09,27,11,30,20.80
2006,09,27,11,31,20.80
2006,09,27,11,32,20.90
2006,09,27,11,33,20.90
2006,09,27,11,34,20.90
2006,09,27,11,35,20.90
2006,09,27,11,36,20.90
2006,09,27,11,37,20.90
2006,09,27,11,38,21.00
2006,09,27,11,39,21.00
2006,09,27,11,40,21.00
2006,09,27,11,41,21.10
2006,09,27,11,42,21.10
2006,09,27,11,43,21.30
2006,09,27,11,44,21.30
2006,09,27,11,45,21.30
2006,09,27,11,46,21.40
2006,09,27,11,47,21.40
2006,09,27,11,48,21.30
2006,09,27,11,49,21.30
2006,09,27,11,50,21.30
2006,09,27,11,51,21.30
2006,09,27,11,52,21.30
2006,09,27,11,53,21.40
2006,09,27,11,54,21.40
2006,09,27,11,55,21.50
2006,09,27,11,56,21.60
2006,09,27,11,57,21.60
2006,09,27,11,58,21.50
2006,09,27,11,59,21.40
2006,09,27,12,00,21.40
2006,09,27,12,01,21.20
2006,09,27,12,02,20.80
2006,09,27,12,03,20.40
2006,09,27,12,04,20.10
2006,09,27,12,05,19.90
2006,09,27,12,06,19.80
2006,09,27,12,07,19.70
2006,09,27,12,08,19.70
2006,09,27,12,09,19.60
2006,09,27,12,10,19.50
2006,09,27,12,11,19.60
2006,09,27,12,12,19.60
2006,09,27,12,13,19.50
2006,09,27,12,14,19.30
2006,09,27,12,15,19.10
2006,09,27,12,16,18.90
2006,09,27,12,17,18.90
2006,09,27,12,18,18.80
2006,09,27,12,19,18.80
2006,09,27,12,20,18.80
2006,09,27,12,21,18.80
2006,09,27,12,22,18.80
2006,09,27,12,23,18.90
2006,09,27,12,24,18.90
2006,09,27,12,25,18.90
2006,09,27,12,26,18.90
2006,09,27,12,27,18.90
2006,09,27,12,28,18.90
2006,09,27,12,29,19.00
2006,09,27,12,30,19.10
2006,09,27,12,31,19.20
2006,09,27,12,32,19.30
2006,09,27,12,33,19.30
2006,09,27,12,34,19.40
2006,09,27,12,35,19.40
2006,09,27,12,36,19.40
2006,09,27,12,37,19.40
2006,09,27,12,38,19.40
2006,09,27,12,39,19.30
2006,09,27,12,40,19.30
2006,09,27,12,41,19.30
2006,09,27,12,42,19.30
2006,09,27,12,43,19.30
2006,09,27,12,44,19.40
2006,09,27,12,45,19.60
2006,09,27,12,46,19.70
2006,09,27,12,47,19.80
2006,09,27,12,48,19.90
2006,09,27,12,49,19.90
2006,09,27,12,50,19.90
2006,09,27,12,51,19.80
2006,09,27,12,52,19.70
2006,09,27,12,53,19.70
2006,09,27,12,54,19.70
2006,09,27,12,55,19.80
2006,09,27,12,56,19.90
2006,09,27,12,57,19.90
2006,09,27,12,58,19.90
2006,09,27,12,59,19.90
2006,09,27,13,00,19.90
2006,09,27,13,01,19.90
2006,09,27,13,02,19.90
2006,09,27,13,03,19.90
2006,09,27,13,04,19.80
2006,09,27,13,05,19.80
2006,09,27,13,06,19.70
2006,09,27,13,07,19.80
2006,09,27,13,08,19.70
2006,09,27,13,09,19.70
2006,09,27,13,10,19.80
2006,09,27,13,11,19.90
2006,09,27,13,12,20.00
2006,09,27,13,13,20.10
2006,09,27,13,14,20.20
2006,09,27,13,15,20.20
2006,09,27,13,16,20.20
2006,09,27,13,17,20.20
2006,09,27,13,18,20.10
2006,09,27,13,19,20.10
2006,09,27,13,20,20.10
2006,09,27,13,21,20.20
2006,09,27,13,22,20.40
2006,09,27,13,23,20.30
2006,09,27,13,24,20.40
2006,09,27,13,25,20.40
2006,09,27,13,26,20.50
2006,09,27,13,27,20.60
2006,09,27,13,28,20.70
2006,09,27,13,29,20.80
2006,09,27,13,30,20.90
2006,09,27,13,31,21.00
2006,09,27,13,32,21.00
2006,09,27,13,33,21.10
2006,09,27,13,34,21.20
2006,09,27,13,35,21.30
2006,09,27,13,36,21.40
2006,09,27,13,37,21.50
2006,09,27,13,38,21.60
2006,09,27,13,39,21.50
2006,09,27,13,40,21.30
2006,09,27,13,41,21.00
2006,09,27,13,42,20.80
2006,09,27,13,43,20.50
2006,09,27,13,44,20.40
2006,09,27,13,45,20.30
2006,09,27,13,46,20.30
2006,09,27,13,47,20.30
2006,09,27,13,48,20.30
2006,09,27,13,49,20.30
2006,09,27,13,50,20.20
2006,09,27,13,51,20.20
2006,09,27,13,52,20.10
2006,09,27,13,53,20.00
2006,09,27,13,54,19.90
2006,09,27,13,55,19.80
2006,09,27,13,56,19.60
2006,09,27,13,57,19.50
2006,09,27,13,58,19.40
2006,09,27,13,59,19.30
2006,09,27,14,00,19.30
2006,09,27,14,01,19.30
2006,09,27,14,02,19.40
2006,09,27,14,03,19.40
2006,09,27,14,04,19.50
2006,09,27,14,05,19.50
2006,09,27,14,06,19.50
2006,09,27,14,07,19.40
2006,09,27,14,08,19.40
2006,09,27,14,09,19.30
2006,09,27,14,10,19.30
2006,09,27,14,11,19.30
2006,09,27,14,12,19.20
2006,09,27,14,13,19.30
2006,09,27,14,14,19.40
2006,09,27,14,15,19.60
2006,09,27,14,16,19.60
2006,09,27,14,17,19.50
2006,09,27,14,18,19.50
2006,09,27,14,19,19.50
2006,09,27,14,20,19.50
2006,09,27,14,21,19.50
2006,09,27,14,22,19.50
2006,09,27,14,23,19.60
2006,09,27,14,24,19.70
2006,09,27,14,25,19.80
2006,09,27,14,26,19.80
2006,09,27,14,27,19.80
2006,09,27,14,28,19.90
2006,09,27,14,29,19.90
2006,09,27,14,30,20.00
2006,09,27,14,31,20.10
2006,09,27,14,32,20.00
2006,09,27,14,33,19.90
2006,09,27,14,34,19.70
2006,09,27,14,35,19.60
2006,09,27,14,36,19.60
2006,09,27,14,37,19.60
2006,09,27,14,38,19.70
2006,09,27,14,39,19.70
2006,09,27,14,40,19.80
2006,09,27,14,41,19.80
2006,09,27,14,42,19.90
2006,09,27,14,43,19.90
2006,09,27,14,44,20.00
2006,09,27,14,45,20.10
2006,09,27,14,46,20.10
2006,09,27,14,47,20.10
2006,09,27,14,48,20.10
2006,09,27,14,49,20.10
2006,09,27,14,50,20.10
2006,09,27,14,51,20.10
2006,09,27,14,52,20.10
2006,09,27,14,53,20.20
2006,09,27,14,54,20.20
2006,09,27,14,55,20.20
2006,09,27,14,56,20.20
2006,09,27,14,57,20.20
2006,09,27,14,58,20.20
2006,09,27,14,59,20.20
2006,09,27,15,00,20.20
2006,09,27,15,01,20.20
2006,09,27,15,02,20.20
2006,09,27,15,03,20.10
2006,09,27,15,04,20.10
2006,09,27,15,05,20.10
2006,09,27,15,06,20.10
2006,09,27,15,07,19.90
2006,09,27,15,08,20.00
2006,09,27,15,09,20.10
2006,09,27,15,10,20.10
2006,09,27,15,11,20.10
2006,09,27,15,12,20.10
2006,09,27,15,13,20.10
2006,09,27,15,14,20.00
2006,09,27,15,15,19.90
2006,09,27,15,16,19.90
2006,09,27,15,17,19.80
2006,09,27,15,18,19.70
2006,09,27,15,19,19.70
2006,09,27,15,20,19.70
2006,09,27,15,21,19.80
2006,09,27,15,22,19.80
2006,09,27,15,23,19.90
2006,09,27,15,24,19.90
2006,09,27,15,25,20.00
2006,09,27,15,26,20.10
2006,09,27,15,27,20.10
2006,09,27,15,28,20.20
2006,09,27,15,29,20.20
2006,09,27,15,30,20.20
2006,09,27,15,31,20.20
2006,09,27,15,32,20.20
2006,09,27,15,33,20.20
2006,09,27,15,34,20.20
2006,09,27,15,35,20.20
2006,09,27,15,36,20.20
2006,09,27,15,37,20.30
2006,09,27,15,38,20.30
2006,09,27,15,39,20.40
2006,09,27,15,40,20.40
2006,09,27,15,41,20.40
2006,09,27,15,42,20.40
2006,09,27,15,43,20.40
2006,09,27,15,44,20.40
2006,09,27,15,45,20.50
2006,09,27,15,46,20.50
2006,09,27,15,47,20.50
2006,09,27,15,48,20.40
2006,09,27,15,49,20.40
2006,09,27,15,50,20.40
2006,09,27,15,51,20.30
2006,09,27,15,52,20.30
2006,09,27,15,53,20.30
2006,09,27,15,54,20.30
2006,09,27,15,55,20.30
2006,09,27,15,56,20.30
2006,09,27,15,57,20.30
2006,09,27,15,58,20.40
2006,09,27,15,59,20.50
2006,09,27,16,00,20.50
2006,09,27,16,01,20.60
2006,09,27,16,02,20.60
2006,09,27,16,03,20.60
2006,09,27,16,04,20.70
2006,09,27,16,05,20.70
2006,09,27,16,06,20.70
2006,09,27,16,07,20.70
2006,09,27,16,08,20.60
2006,09,27,16,09,20.60
2006,09,27,16,10,20.60
2006,09,27,16,11,20.60
2006,09,27,16,12,20.60
2006,09,27,16,13,20.60
2006,09,27,16,14,20.60
2006,09,27,16,15,20.60
2006,09,27,16,16,20.60
2006,09,27,16,17,20.70
2006,09,27,16,18,20.70
2006,09,27,16,19,20.60
2006,09,27,16,20,20.60
2006,09,27,16,21,20.60
2006,09,27,16,22,20.50
2006,09,27,16,23,20.50
2006,09,27,16,24,20.50
2006,09,27,16,25,20.50
2006,09,27,16,26,20.50
2006,09,27,16,27,20.60
2006,09,27,16,28,20.70
2006,09,27,16,29,20.70
2006,09,27,16,30,20.70
2006,09,27,16,31,20.60
2006,09,27,16,32,20.50
2006,09,27,16,33,20.50
2006,09,27,16,34,20.50
2006,09,27,16,35,20.50
2006,09,27,16,36,20.60
2006,09,27,16,37,20.60
2006,09,27,16,38,20.60
2006,09,27,16,39,20.70
2006,09,27,16,40,20.70
2006,09,27,16,41,20.80
2006,09,27,16,42,20.90
2006,09,27,16,43,20.90
2006,09,27,16,44,20.90
2006,09,27,16,45,20.90
2006,09,27,16,46,21.00
2006,09,27,16,47,21.00
2006,09,27,16,48,21.00
2006,09,27,16,49,21.00
2006,09,27,16,50,21.00
2006,09,27,16,51,21.10
2006,09,27,16,52,21.10
2006,09,27,16,53,21.20
2006,09,27,16,54,21.10
2006,09,27,16,55,21.10
2006,09,27,16,56,21.10
2006,09,27,16,57,21.10
2006,09,27,16,58,21.10
2006,09,27,16,59,21.10
2006,09,27,17,00,21.20
2006,09,27,17,01,21.20
2006,09,27,17,02,21.30
2006,09,27,17,03,21.30
2006,09,27,17,04,21.20
2006,09,27,17,05,21.20
2006,09,27,17,06,21.20
2006,09,27,17,07,21.20
2006,09,27,17,08,21.10
2006,09,27,17,09,21.10
2006,09,27,17,10,21.20
2006,09,27,17,11,21.20
2006,09,27,17,12,21.20
2006,09,27,17,13,21.30
2006,09,27,17,14,21.30
2006,09,27,17,15,21.30
2006,09,27,17,16,21.40
2006,09,27,17,17,21.50
2006,09,27,17,18,21.60
2006,09,27,17,19,21.60